TimeEST,TemperatureF,Dew PointF,Humidity,Sea Level PressureIn,VisibilityMPH,Wind Direction,Wind SpeedMPH,Gust SpeedMPH,PrecipitationIn,Events,Conditions,WindDirDegrees,DateUTC
12:15 AM,28.4,14.0,55,29.87,10.0,West,12.7,23.0,N/A,,Scattered Clouds,280,2013-02-04 05:15:00
12:35 AM,28.4,14.0,55,29.88,10.0,West,8.1,18.4,N/A,,Scattered Clouds,280,2013-02-04 05:35:00
12:55 AM,26.6,12.2,55,29.88,10.0,West,11.5,17.3,N/A,,Clear,280,2013-02-04 05:55:00
1:15 AM,26.6,12.2,55,29.89,10.0,WNW,9.2,16.1,N/A,,Clear,290,2013-02-04 06:15:00
1:35 AM,26.6,12.2,55,29.89,10.0,West,11.5,19.6,N/A,,Clear,280,2013-02-04 06:35:00
1:55 AM,26.6,12.2,55,29.90,10.0,WNW,8.1,-,N/A,,Clear,290,2013-02-04 06:55:00
2:15 AM,26.6,12.2,55,29.91,10.0,WNW,4.6,9.2,N/A,,Clear,290,2013-02-04 07:15:00
2:35 AM,26.6,12.2,55,29.91,10.0,WNW,9.2,-,N/A,,Clear,290,2013-02-04 07:35:00
2:55 AM,24.8,12.2,59,29.91,10.0,West,3.5,-,N/A,,Clear,280,2013-02-04 07:55:00
3:15 AM,24.8,12.2,59,29.91,10.0,West,6.9,-,N/A,,Clear,280,2013-02-04 08:15:00
3:35 AM,24.8,12.2,59,29.92,10.0,West,6.9,-,N/A,,Clear,270,2013-02-04 08:35:00
3:55 AM,24.8,12.2,59,29.93,10.0,WNW,6.9,19.6,N/A,,Clear,290,2013-02-04 08:55:00
4:15 AM,24.8,12.2,59,29.94,10.0,WNW,6.9,-,N/A,,Clear,300,2013-02-04 09:15:00
5:55 AM,23.0,12.2,63,29.96,10.0,West,3.5,-,N/A,,Clear,270,2013-02-04 10:55:00
6:15 AM,23.0,12.2,63,29.96,10.0,West,4.6,-,N/A,,Clear,280,2013-02-04 11:15:00
6:35 AM,23.0,12.2,63,29.96,10.0,West,4.6,-,N/A,,Clear,280,2013-02-04 11:35:00
6:55 AM,23.0,12.2,63,29.97,10.0,Calm,Calm,-,N/A,,Clear,0,2013-02-04 11:55:00
7:15 AM,21.2,12.2,68,29.98,10.0,WSW,3.5,-,N/A,,Clear,250,2013-02-04 12:15:00
7:35 AM,23.0,12.2,63,29.99,10.0,WSW,3.5,-,N/A,,Clear,240,2013-02-04 12:35:00
7:55 AM,23.0,12.2,63,30.01,10.0,WSW,5.8,-,N/A,,Clear,250,2013-02-04 12:55:00
8:15 AM,24.8,12.2,59,30.01,10.0,WSW,8.1,-,N/A,,Clear,240,2013-02-04 13:15:00
8:35 AM,26.6,12.2,55,30.02,10.0,West,6.9,-,N/A,,Clear,270,2013-02-04 13:35:00
8:55 AM,26.6,12.2,55,30.02,10.0,West,5.8,9.2,N/A,,Clear,270,2013-02-04 13:55:00
9:15 AM,28.4,12.2,51,30.03,10.0,West,8.1,18.4,N/A,,Clear,260,2013-02-04 14:15:00
9:35 AM,28.4,10.4,47,30.03,10.0,WNW,15.0,21.9,N/A,,Clear,300,2013-02-04 14:35:00
9:55 AM,28.4,10.4,47,30.03,10.0,West,9.2,19.6,N/A,,Scattered Clouds,280,2013-02-04 14:55:00
10:15 AM,28.4,12.2,51,30.02,10.0,West,10.4,-,N/A,,Scattered Clouds,260,2013-02-04 15:15:00
10:35 AM,28.4,10.4,47,30.03,10.0,WNW,12.7,19.6,N/A,,Scattered Clouds,290,2013-02-04 15:35:00
10:55 AM,30.2,12.2,47,30.03,10.0,West,9.2,-,N/A,,Scattered Clouds,260,2013-02-04 15:55:00
11:15 AM,28.4,10.4,47,30.03,10.0,West,11.5,19.6,N/A,,Mostly Cloudy,270,2013-02-04 16:15:00
11:35 AM,30.2,10.4,44,30.02,10.0,West,12.7,21.9,N/A,,Scattered Clouds,260,2013-02-04 16:35:00
11:55 AM,30.2,12.2,47,30.01,10.0,West,6.9,16.1,N/A,,Scattered Clouds,260,2013-02-04 16:55:00
12:15 PM,30.2,12.2,47,30.00,10.0,West,10.4,20.7,N/A,,Scattered Clouds,280,2013-02-04 17:15:00
12:35 PM,30.2,12.2,47,29.99,10.0,West,9.2,19.6,N/A,,Scattered Clouds,280,2013-02-04 17:35:00
12:55 PM,30.2,12.2,47,29.98,10.0,West,12.7,19.6,N/A,,Scattered Clouds,260,2013-02-04 17:55:00
1:15 PM,32.0,12.2,44,29.97,10.0,West,10.4,17.3,N/A,,Scattered Clouds,280,2013-02-04 18:15:00
1:35 PM,30.2,12.2,47,29.97,10.0,West,8.1,18.4,N/A,,Scattered Clouds,260,2013-02-04 18:35:00
1:55 PM,30.2,12.2,47,29.96,10.0,West,15.0,19.6,N/A,,Clear,260,2013-02-04 18:55:00
2:15 PM,30.2,14.0,51,29.96,10.0,WSW,10.4,18.4,N/A,,Clear,250,2013-02-04 19:15:00
2:35 PM,32.0,12.2,44,29.96,10.0,WNW,8.1,-,N/A,,Clear,290,2013-02-04 19:35:00
2:55 PM,32.0,12.2,44,29.96,10.0,WNW,13.8,19.6,N/A,,Clear,290,2013-02-04 19:55:00
3:15 PM,32.0,14.0,48,29.96,10.0,West,8.1,-,N/A,,Scattered Clouds,260,2013-02-04 20:15:00
3:35 PM,32.0,12.2,44,29.96,10.0,West,8.1,-,N/A,,Scattered Clouds,270,2013-02-04 20:35:00
3:55 PM,32.0,14.0,48,29.96,10.0,West,8.1,-,N/A,,Clear,270,2013-02-04 20:55:00
4:15 PM,32.0,14.0,48,29.96,10.0,WNW,6.9,-,N/A,,Clear,290,2013-02-04 21:15:00
4:35 PM,32.0,14.0,48,29.96,10.0,Calm,Calm,-,N/A,,Scattered Clouds,0,2013-02-04 21:35:00
4:55 PM,32.0,14.0,48,29.96,10.0,West,5.8,-,N/A,,Clear,270,2013-02-04 21:55:00
5:15 PM,32.0,14.0,48,29.95,10.0,West,3.5,-,N/A,,Clear,260,2013-02-04 22:15:00
5:35 PM,30.2,14.0,51,29.96,10.0,West,3.5,-,N/A,,Clear,280,2013-02-04 22:35:00
5:55 PM,30.2,14.0,51,29.96,10.0,Calm,Calm,-,N/A,,Clear,0,2013-02-04 22:55:00
6:15 PM,28.4,14.0,55,29.96,10.0,Calm,Calm,-,N/A,,Clear,0,2013-02-04 23:15:00
6:35 PM,26.6,17.6,69,29.96,10.0,Calm,Calm,-,N/A,,Clear,0,2013-02-04 23:35:00
7:15 PM,24.8,17.6,74,29.96,10.0,Calm,Calm,-,N/A,,Clear,0,2013-02-05 00:15:00
7:35 PM,23.0,17.6,80,29.96,10.0,Calm,Calm,-,N/A,,Clear,0,2013-02-05 00:35:00
7:55 PM,23.0,17.6,80,29.96,10.0,Calm,Calm,-,N/A,,Clear,0,2013-02-05 00:55:00
8:15 PM,23.0,17.6,80,29.96,10.0,Calm,Calm,-,N/A,,Scattered Clouds,0,2013-02-05 01:15:00
8:35 PM,24.8,17.6,74,29.96,10.0,Calm,Calm,-,N/A,,Mostly Cloudy,0,2013-02-05 01:35:00
8:55 PM,26.6,21.2,80,29.96,10.0,Calm,Calm,-,N/A,,Overcast,0,2013-02-05 01:55:00
9:15 PM,26.6,21.2,80,29.95,10.0,Calm,Calm,-,N/A,,Mostly Cloudy,0,2013-02-05 02:15:00
9:35 PM,28.4,23.0,80,29.95,10.0,Calm,Calm,-,N/A,,Clear,0,2013-02-05 02:35:00
9:55 PM,28.4,23.0,80,29.96,10.0,South,3.5,-,N/A,,Clear,180,2013-02-05 02:55:00
10:15 PM,30.2,21.2,69,29.95,10.0,South,3.5,-,N/A,,Mostly Cloudy,190,2013-02-05 03:15:00
10:35 PM,32.0,21.2,64,29.94,10.0,Calm,Calm,-,N/A,,Overcast,0,2013-02-05 03:35:00
10:55 PM,32.0,21.2,64,29.94,7.0,South,4.6,-,N/A,,Overcast,190,2013-02-05 03:55:00
11:15 PM,30.2,23.0,75,29.93,7.0,South,5.8,-,N/A,,Overcast,190,2013-02-05 04:15:00
11:35 PM,30.2,23.0,75,29.93,10.0,South,5.8,-,N/A,,Overcast,180,2013-02-05 04:35:00
11:55 PM,30.2,24.8,80,29.92,10.0,South,4.6,-,N/A,,Mostly Cloudy,180,2013-02-05 04:55:00